Location: Jaite
(41.2884°N, 81.5737°W)
Time: 05:23:18
(UTC+00:00)

Meteor 2-1 Rocket - Pass Details

Date: 15 November 2025
Orbit: 823 x 911 km, 81.3° (Epoch: 04 December)

Event Time Altitude Azimuth Distance (km) Brightness Sun altitude
Rises 11:40:55 0° 348° (NNW) 3,536 7.1 -6.8°
Reaches altitude 10° 11:43:25 10° 346° (NNW) 2,583 6.4 -6.3°
Maximum altitude 11:49:16 70° 264° (W) 940 4.3 -5.3°
Drops below altitude 10° 11:54:57 10° 181° (S) 2,510 6.9 -4.3°
Sets 11:57:21 0° 179° (S) 3,430 7.7 -3.9°
